Waarnemingen

Advertentie
Mijn weer
Twenthe, Nederland (6290): temperatuur & dauwpunt: 19.02.2018 02:00:00 - 25.02.2018 02:00:00 (CET)Twenthe, Nederland (6290): temperatuur 5cm: 19.02.2018 02:00:00 - 25.02.2018 02:00:00 (CET)Twenthe, Nederland (6290): windsnelheid & windstoten: 19.02.2018 02:00:00 - 25.02.2018 02:00:00 (CET)Twenthe, Nederland (6290): windrichting: 19.02.2018 02:00:00 - 25.02.2018 02:00:00 (CET)Twenthe, Nederland (6290): luchtdruk: 19.02.2018 02:00:00 - 25.02.2018 02:00:00 (CET)Twenthe, Nederland (6290): zicht: 19.02.2018 02:00:00 - 25.02.2018 02:00:00 (CET)Twenthe, Nederland (6290): neerslag: 19.02.2018 02:00:00 - 25.02.2018 02:00:00 (CET)
Datum & Tijd tt [°C] td [°C] tt 5cm [°C] ff [km/u] ff [kn] fx [km/u] fx [kn] dd ppp [hPa] vv [km] rr [mm]
25.02.2018 02:00:00 -3,5 -10,0 -4,9 14 8 32 18 ONO 1030,5 49 0,0
25.02.2018 01:00:00 -3,0 -9,6 -4,5 18 10 29 16 ONO 1030,7 48 0,0
25.02.2018 00:00:00 -2,5 -9,6 -4,1 14 8 29 16 ONO 1030,3 50 0,0
24.02.2018 23:00:00 -2,1 -9,7 -3,7 14 8 36 19 ONO 1030,2 49 0,0
24.02.2018 22:00:00 -1,5 -9,8 -3,1 14 8 29 16 ONO 1029,9 49 0,0
24.02.2018 21:00:00 -1,1 -9,7 -2,8 14 8 36 19 ONO 1029,6 50 0,0
24.02.2018 20:00:00 -0,7 -9,2 -2,3 18 10 36 19 ONO 1029,2 50 0,0
24.02.2018 19:00:00 0,0 -9,5 -1,4 18 10 36 19 ONO 1028,8 50 0,0
24.02.2018 18:00:00 0,5 -8,9 -0,7 18 10 40 21 ONO 1028,3 50 0,0
24.02.2018 17:00:00 1,5 -8,4 0,9 18 10 50 27 ONO 1028,0 40 0,0
24.02.2018 16:00:00 1,7 -7,1 1,4 22 12 40 21 O 1028,0 41 0,0
24.02.2018 15:00:00 2,8 -5,9 3,4 22 12 40 21 O 1028,0 31 0,0
24.02.2018 14:00:00 2,1 -5,7 3,3 22 12 47 25 ONO 1028,1 33 0,0
24.02.2018 13:00:00 1,8 -5,4 2,0 29 16 54 29 O 1028,2 38 0,0
24.02.2018 12:00:00 1,2 -6,3 2,2 22 12 47 25 O 1028,7 31 0,0
24.02.2018 11:00:00 -0,3 -7,9 0,6 22 12 40 21 O 1028,6 28 0,0
24.02.2018 10:00:00 -1,7 -9,4 -1,6 18 10 32 18 O 1028,4 19 0,0
24.02.2018 09:00:00 -3,3 -9,5 -3,5 14 8 29 16 ONO 1028,0 19 0,0
24.02.2018 08:00:00 -4,3 -9,4 -5,1 18 10 29 16 ONO 1027,5 19 0,0
24.02.2018 07:00:00 -4,3 -9,4 -5,2 14 8 29 16 ONO 1027,1 19 0,0
24.02.2018 06:00:00 -4,0 -9,5 -5,3 11 6 25 14 ONO 1026,5 19 0,0
24.02.2018 05:00:00 -4,0 -9,3 -5,1 14 8 25 14 ONO 1026,2 23 0,0
24.02.2018 04:00:00 -3,8 -9,3 -5,0 11 6 25 14 ONO 1025,6 22 0,0
24.02.2018 03:00:00 -3,7 -9,3 -4,9 14 8 25 14 ONO 1025,5 25 0,0
24.02.2018 02:00:00 -3,0 -9,5 -4,5 14 8 25 14 ONO 1025,4 29 0,0
24.02.2018 01:00:00 -2,8 -10,0 -4,4 14 8 25 14 ONO 1025,3 36 0,0
24.02.2018 00:00:00 -2,3 -9,8 -4,1 14 8 29 16 ONO 1025,2 32 0,0
23.02.2018 23:00:00 -1,9 -9,0 -3,5 14 8 29 16 ONO 1024,8 28 0,0
23.02.2018 22:00:00 -1,8 -7,9 -3,4 14 8 25 14 ONO 1024,6 26 0,0
23.02.2018 21:00:00 -1,7 -7,0 -3,4 14 8 25 14 ONO 1024,6 24 0,0
23.02.2018 20:00:00 -1,2 -7,1 -2,8 14 8 29 16 ONO 1024,2 29 0,0
23.02.2018 19:00:00 -0,4 -7,3 -2,0 14 8 29 16 ONO 1024,0 39 0,0
23.02.2018 18:00:00 0,2 -6,9 -1,1 18 10 32 18 NO 1023,5 44 0,0
23.02.2018 17:00:00 1,2 -7,0 0,6 22 12 32 18 NO 1023,5 36 0,0
23.02.2018 16:00:00 2,2 -6,9 2,4 22 12 43 23 ONO 1023,4 39 0,0
23.02.2018 15:00:00 2,4 -7,1 2,7 25 14 43 23 ONO 1023,7 29 0,0
23.02.2018 14:00:00 2,0 -7,1 3,1 22 12 43 23 ONO 1024,2 37 0,0
23.02.2018 13:00:00 2,2 -6,5 3,5 18 10 40 21 ONO 1024,5 30 0,0
23.02.2018 12:00:00 1,6 -6,3 2,2 22 12 40 21 O 1024,9 25 0,0
23.02.2018 11:00:00 0,6 -5,2 0,7 22 12 32 18 O 1025,2 19 0,0
23.02.2018 10:00:00 -0,2 -3,4 -0,3 18 10 29 16 ONO 1025,2 11 0,0
23.02.2018 09:00:00 -1,2 -2,9 -2,1 14 8 22 12 NO 1025,0 6 0,0
23.02.2018 08:00:00 -2,6 -3,9 -4,2 11 6 18 10 NO 1024,6 5 0,0
23.02.2018 07:00:00 -2,5 -3,6 -4,0 11 6 18 10 NO 1024,2 4,5 0,0
23.02.2018 06:00:00 -1,6 -2,8 -2,2 11 6 18 10 NO 1024,1 4,4 0,0
23.02.2018 05:00:00 -1,7 -2,8 -2,0 14 8 18 10 NO 1024,0 4,2 0,0
23.02.2018 04:00:00 -2,4 -3,3 -3,3 11 6 18 10 NO 1024,2 3,6 0,0
23.02.2018 03:00:00 -1,6 -2,7 -2,0 14 8 22 12 NO 1024,4 3,9 0,0
23.02.2018 02:00:00 -2,5 -3,3 -3,8 11 6 18 10 NNO 1024,8 3,9 0,0
23.02.2018 01:00:00 -3,3 -4,1 -5,3 11 6 18 10 NNO 1024,9 4,4 0,0
23.02.2018 00:00:00 -3,2 -4,1 -5,2 11 6 18 10 NO 1024,9 5 0,0
22.02.2018 23:00:00 -2,6 -3,9 -4,8 14 8 18 10 NNO 1025,2 7 0,0
22.02.2018 22:00:00 -2,3 -3,7 -3,8 14 8 18 10 NNO 1025,0 7 0,0
22.02.2018 21:00:00 -1,7 -3,6 -3,4 14 8 18 10 NO 1025,0 9 0,0
22.02.2018 20:00:00 -1,1 -3,8 -4,0 11 6 14 8 NO 1025,1 13 0,0
22.02.2018 19:00:00 -1,1 -4,7 -4,7 11 6 18 10 NO 1024,9 21 0,0
22.02.2018 18:00:00 0,2 -4,9 -1,5 11 6 32 18 NO 1024,8 28 0,0
22.02.2018 17:00:00 2,6 -5,4 1,9 22 12 29 16 NO 1024,7 41 0,0
22.02.2018 16:00:00 3,3 -5,2 3,5 18 10 32 18 NO 1024,7 33 0,0
22.02.2018 15:00:00 3,5 -4,6 4,1 22 12 32 18 NO 1024,9 35 0,0
22.02.2018 14:00:00 3,4 -3,8 4,2 18 10 32 18 ONO 1025,7 30 0,0
22.02.2018 13:00:00 2,8 -3,6 2,5 18 10 25 14 NO 1026,2 27 0,0
22.02.2018 12:00:00 1,9 -3,2 1,9 18 10 25 14 NO 1026,5 22 0,0
22.02.2018 11:00:00 1,5 -2,6 1,8 14 8 29 16 NO 1026,4 15 0,0
22.02.2018 10:00:00 0,1 -2,6 -0,1 7 4 18 10 NO 1026,6 11 0,0
22.02.2018 09:00:00 -1,7 -4,3 -2,9 11 6 14 8 NO 1026,6 11 0,0
22.02.2018 08:00:00 -4,3 -6,1 -7,1 7 4 14 8 NO 1026,4 11 0,0
22.02.2018 07:00:00 -5,0 -6,7 -8,1 11 6 14 8 NNO 1026,2 12 0,0
22.02.2018 06:00:00 -3,8 -6,2 -6,6 7 4 14 8 NO 1026,0 14 0,0
22.02.2018 05:00:00 -3,5 -6,0 -5,0 11 6 18 10 NO 1025,9 13 0,0
22.02.2018 04:00:00 -3,1 -6,0 -4,4 14 8 18 10 NO 1025,8 14 0,0
22.02.2018 03:00:00 -3,2 -6,2 -5,1 11 6 18 10 NO 1026,0 14 0,0
22.02.2018 02:00:00 -2,2 -5,8 -4,1 11 6 18 10 NO 1026,1 14 0,0
22.02.2018 01:00:00 -3,0 -6,0 -5,3 11 6 14 8 NO 1026,4 13 0,0
22.02.2018 00:00:00 -2,6 -5,8 -4,7 14 8 18 10 NO 1026,4 12 0,0
21.02.2018 23:00:00 -2,6 -6,1 -5,1 11 6 18 10 NO 1026,5 13 0,0
21.02.2018 22:00:00 -2,0 -5,6 -4,5 11 6 14 8 NO 1026,4 13 0,0
21.02.2018 21:00:00 -2,5 -5,7 -6,3 11 6 14 8 NO 1026,3 11 0,0
21.02.2018 20:00:00 -1,8 -5,5 -5,7 11 6 14 8 NO 1026,1 12 0,0
21.02.2018 19:00:00 -0,7 -5,1 -4,2 11 6 14 8 NO 1025,8 13 0,0
21.02.2018 18:00:00 1,2 -4,4 -0,8 11 6 25 14 ONO 1025,4 13 0,0
21.02.2018 17:00:00 3,0 -4,5 2,7 14 8 25 14 ONO 1025,2 13 0,0
21.02.2018 16:00:00 3,5 -4,1 3,8 14 8 25 14 ONO 1025,4 13 0,0
21.02.2018 15:00:00 4,1 -4,6 4,6 14 8 25 14 NO 1025,6 14 0,0
21.02.2018 14:00:00 3,9 -4,2 5,4 11 6 22 12 NO 1026,2 14 0,0
21.02.2018 13:00:00 3,5 -3,8 4,9 11 6 18 10 ONO 1026,4 13 0,0
21.02.2018 12:00:00 2,6 -3,3 3,6 11 6 18 10 NNO 1026,8 11 0,0
21.02.2018 11:00:00 0,9 -2,2 1,7 7 4 14 8 N 1026,9 7 0,0
21.02.2018 10:00:00 -0,9 -2,9 -1,1 7 4 11 6 NNO 1026,5 5 0,0
21.02.2018 09:00:00 -3,6 -4,2 -5,4 7 4 7 4 N 1026,5 2,5 0,0
21.02.2018 08:00:00 -5,8 -6,0 -10,0 0 0 7 4 N 1026,2 1,4 0,0
21.02.2018 07:00:00 -3,8 -4,5 -8,6 7 4 11 6 NO 1026,0 3,1 0,0
21.02.2018 06:00:00 -4,0 -5,0 -9,6 7 4 11 6 N 1025,9 3,7 0,0
21.02.2018 05:00:00 -3,0 -4,4 -7,6 7 4 11 6 NO 1025,5 4,7 0,0
21.02.2018 04:00:00 -3,3 -4,9 -6,0 11 6 14 8 NO 1025,5 5 0,0
21.02.2018 03:00:00 -3,4 -4,9 -5,6 11 6 14 8 N 1025,5 5 0,0
21.02.2018 02:00:00 -3,5 -5,5 -7,3 11 6 14 8 NO 1024,7 6 0,0
21.02.2018 01:00:00 -3,3 -5,4 -6,6 11 6 14 8 N 1024,9 7 0,0
21.02.2018 00:00:00 -2,6 -4,9 -5,8 7 4 18 10 N 1024,5 7 0,0
20.02.2018 23:00:00 -2,0 -4,8 -5,7 11 6 14 8 NO 1023,8 8 0,0
20.02.2018 22:00:00 -1,3 -4,3 -6,1 11 6 11 6 NNO 1023,3 9 0,0
20.02.2018 21:00:00 -1,2 -4,2 -6,5 7 4 11 6 NNO 1022,8 11 0,0
20.02.2018 20:00:00 -0,4 -3,5 -5,7 7 4 7 4 NNO 1022,2 11 0,0
20.02.2018 19:00:00 1,6 -3,3 -3,7 7 4 11 6 NO 1021,5 14 0,0
20.02.2018 18:00:00 1,9 -3,2 -0,7 7 4 22 12 NO 1020,7 15 0,0
20.02.2018 17:00:00 3,9 -1,9 3,1 11 6 18 10 NO 1020,0 12 0,0
20.02.2018 16:00:00 4,1 -1,9 2,8 7 4 22 12 NO 1019,8 11 0,0
20.02.2018 15:00:00 4,3 -2,3 4,7 18 10 25 14 NO 1019,7 13 0,0
20.02.2018 14:00:00 4,8 -1,4 5,6 11 6 14 8 NNO 1019,8 11 0,0
20.02.2018 13:00:00 4,8 -1,7 6,8 7 4 18 10 O 1019,8 11 0,0
20.02.2018 12:00:00 4,1 -1,6 5,5 7 4 22 12 ONO 1019,9 10 0,0
20.02.2018 11:00:00 3,0 -1,8 3,8 14 8 22 12 O 1019,4 8 0,0
20.02.2018 10:00:00 0,7 -1,4 0,3 7 4 14 8 O 1019,3 7 0,0
20.02.2018 09:00:00 -3,6 -4,1 -5,3 4 2 7 4 N 1019,4 2,4 0,0
20.02.2018 08:00:00 -6,2 -6,6 -9,7 4 2 4 2 NO 1019,3 1,4 0,0
20.02.2018 07:00:00 -5,9 -6,3 -9,6 4 2 4 2 N 1019,0 0,1 0,0
20.02.2018 06:00:00 -5,4 -5,8 -9,6 4 2 7 4 NO 1019,0 1,5 0,0
20.02.2018 05:00:00 -5,8 -6,2 -9,6 7 4 7 4 NNO 1018,8 0,1 0,0
20.02.2018 04:00:00 -4,7 -5,0 -8,6 4 2 7 4 NO 1018,6 0,5 0,0
20.02.2018 03:00:00 -5,1 -5,4 -9,2 7 4 7 4 NO 1018,5 1,6 0,0
20.02.2018 02:00:00 -4,6 -5,2 -8,5 4 2 7 4 N 1018,5 2,3 0,0
20.02.2018 01:00:00 -4,6 -4,8 -8,2 4 2 4 2 NO 1018,6 0,4 0,0
20.02.2018 00:00:00 -4,3 -4,8 -7,1 4 2 11 6 NO 1018,7 3,4 0,0
19.02.2018 23:00:00 -3,2 -3,5 -6,8 4 2 4 2 NNO 1018,5 3,7 0,0
19.02.2018 22:00:00 -2,6 -3,1 -5,9 0 0 7 4 N 1018,8 4,6 0,0
19.02.2018 21:00:00 -2,6 -3,3 -5,1 4 2 7 4 ONO 1018,8 4,7 0,0
19.02.2018 20:00:00 -2,7 -4,1 -5,6 4 2 11 6 ONO 1018,9 7 0,0
19.02.2018 19:00:00 -0,5 -2,9 -3,6 7 4 11 6 O 1018,6 10 0,0
19.02.2018 18:00:00 2,3 -1,8 0,0 4 2 7 4 O 1018,4 11 0,0
19.02.2018 17:00:00 3,5 -1,4 3,0 7 4 11 6 O 1018,6 12 0,0
19.02.2018 16:00:00 4,1 -1,9 4,0 7 4 14 8 OZO 1018,6 14 0,0
19.02.2018 15:00:00 4,3 -1,7 4,6 7 4 14 8 ZZO 1019,0 14 0,0
19.02.2018 14:00:00 4,2 -1,6 5,1 7 4 14 8 Z 1019,2 13 0,0
19.02.2018 13:00:00 3,3 -1,7 3,6 7 4 14 8 Z 1019,9 12 0,0
19.02.2018 12:00:00 2,6 -1,7 3,0 11 6 18 10 ZZO 1020,4 10 0,0
19.02.2018 11:00:00 2,0 -1,6 2,0 11 6 18 10 Z 1020,7 9 0,0
19.02.2018 10:00:00 1,2 -1,7 0,8 11 6 18 10 Z 1020,8 8 0,0
19.02.2018 09:00:00 0,6 -1,8 -0,1 7 4 14 8 Z 1020,9 8 0,0
19.02.2018 08:00:00 0,1 -2,2 -0,9 11 6 14 8 Z 1021,1 8 0,0
19.02.2018 07:00:00 0,2 -2,4 -0,8 7 4 14 8 Z 1021,0 9 0,0
19.02.2018 06:00:00 0,2 -2,5 -1,0 7 4 18 10 Z 1021,1 10 0,0
19.02.2018 05:00:00 0,6 -2,4 -0,4 11 6 18 10 Z 1021,3 10 0,0
19.02.2018 04:00:00 0,5 -2,4 -0,6 11 6 18 10 Z 1021,7 11 0,0
19.02.2018 03:00:00 -0,2 -3,0 -2,4 11 6 18 10 Z 1022,3 11 0,0
19.02.2018 02:00:00 -0,3 -3,1 -2,1 11 6 14 8 Z 1022,6 12 0,0

tt = temperatuur
td = dauwpunt
tt 5cm = temperatuur 5cm
ff = windsnelheid
fx = windstoten
dd = windrichting
ppp = luchtdruk
vv = zicht
rr = neerslag

Weerstations in de omgeving